Torna al catalogo

BUFENG YI HAO A XING

AttivoScienzaVLEO
NORAD 44312·PAYLOAD·🇨🇳 China
Questo nome del satellite non è ancora stato confermato da fonti ufficiali.

Lanciato Jun 5, 2019 da Yellow Sea Launch Area

Loading…

Prossimi Passaggi (prossime 24 ore)

TLE

AggiornatoSource: Space-Track

Epoca: Sep 14, 2026, 23:30 UTC

1 44312U 19032C   26257.97918432  .00012847  00000-0  38699-3 0  9994
2 44312  44.9735 222.0846 0005864 113.8643 246.2857 15.34370124401628

Traccia BUFENG YI HAO A XING in tempo reale con AllMySat

Download on the App Store